APSTAR 6C (43450 NORAD) Tracking and Keplerian Element Data

This shows tracking and keplerian element data for the satellite.

Feedback or suggestion? Click here.




ElementValue
Catalog43450
NameAPSTAR 6C
Epoch Orbit38
Epoch Day152.92274821
Epoch Year2018
RAAN267.9356
Inclination0.1142
Eccentricity0.000192
Argument of Perigee154.1291
Mean Anonmoly294.5906
Mean Motion1.00269148
Decay Rate-3.2E-06
L11 43450U 18041A 18152.92274821 -.00000320 00000-0 10000-3 0 9992
L22 43450 0.1142 267.9356 0001920 154.1291 294.5906 1.00269148 386

Live tracking and technical data element details for APSTAR 6C (NORAD 43450). APSTAR 6C can be tracked NOW for your location showing map with azimuth and elevation plus other details from your city location.

Track the satellite on the map from your city or location and see movement details for azimuth, elevation, latitude, longitude, range, height, and movement on the map or in text.







IsCatalogInMostPopularTable: catalog: 43450, numindb: 61
Update: records affected: 1



GetName: 43450 APSTAR 6C

Hit Count: updated at: Sat, 17 Nov 2018 05:29:01 GMT